Wind_Speed
0 1 1 2 2 1 2 3 4 4 4 4 4 3 3 2 2 1 0 1 1 1 1 2 2 2 2 2 2 2 2 3 3 3 3 3 3 4 4 4 4 4 5 5 6 6 5 6 6
0 1 1 1 1 1 2 2 3 4 4 4 3 2 2 2 1 1 1 1 2 2 2 2 1 1 1 2 2 1 2 2 2 3 3 3 3 4 4 4 5 4 5 5 6 6 6 7 7
1 1 1 1 2 2 2 3 3 4 4 3 2 2 2 1 1 1 1 2 2 3 3 2 1 1 1 1 1 1 2 2 2 3 3 3 3 4 4 4 5 5 5 5 6 6 7 7 7
2 2 2 2 1 2 2 3 4 4 4 3 2 2 1 2 1 2 1 2 2 3 3 2 2 2 2 2 2 2 2 2 2 3 3 4 4 5 5 5 5 6 6 6 6 7 7 7 7
3 2 2 2 2 2 2 3 3 3 3 3 3 3 2 2 2 2 2 2 2 3 3 2 3 3 3 3 3 3 3 2 3 4 5 5 5 6 6 6 6 6 6 7 7 7 7 7 8
3 3 3 3 3 2 2 3 3 3 3 4 4 4 4 3 3 3 4 4 4 4 3 4 3 3 3 3 4 4 4 4 5 5 5 6 6 6 7 7 7 7 7 7 7 7 7 8 8
3 3 4 3 3 3 3 4 4 4 4 4 4 4 4 4 4 4 5 5 5 4 5 5 5 5 4 4 5 5 5 6 6 6 6 7 7 7 7 7 8 8 7 8 8 8 8 8 8
3 4 4 4 4 3 4 4 4 5 5 5 4 4 5 5 5 5 5 5 5 5 5 5 5 6 6 6 6 6 7 7 7 7 7 8 8 8 8 8 8 8 8 8 8 8 9 9 9
4 4 4 4 4 4 4 4 5 4 5 5 5 5 6 6 6 6 6 6 6 5 6 6 6 7 7 7 7 8 8 8 8 8 8 8 9 9 9 9 9 9 9 9 9 9 10 10 10
5 5 5 5 4 5 5 5 5 5 4 5 6 6 6 6 6 6 6 6 6 6 6 6 6 7 7 8 8 9 9 9 9 9 9 10 10 10 10 9 9 10 10 10 10 10 9 9 10
6 6 6 5 5 6 6 6 6 6 6 6 6 6 6 6 7 7 7 7 7 7 7 7 7 7 8 8 9 9 9 10 10 10 10 10 10 10 10 10 11 11 11 11 10 10 10 9 10
6 6 6 6 6 6 6 7 6 6 5 5 6 6 6 6 6 6 6 6 7 7 7 7 8 7 8 8 9 9 9 10 10 10 11 11 11 11 11 12 12 12 12 11 11 10 10 10 10
6 6 6 6 6 6 7 7 7 7 6 6 6 7 6 6 7 7 7 7 7 7 7 7 8 8 8 8 9 10 10 11 11 11 11 11 12 12 12 12 12 12 12 11 11 11 10 11 10
6 7 6 6 6 6 7 7 8 8 8 8 7 7 8 7 7 7 7 7 7 7 7 8 8 8 9 9 9 9 9 10 10 10 10 11 11 12 12 12 12 11 11 11 11 11 11 11 11
7 7 7 7 7 7 7 7 8 8 9 8 8 8 8 8 7 7 7 7 8 7 7 7 8 9 9 9 9 9 10 10 9 10 10 11 11 11 11 12 11 11 11 11 11 11 11 11 11
7 8 8 8 7 7 7 7 8 8 8 8 8 8 8 8 8 8 8 8 8 8 8 7 8 8 8 8 9 9 9 10 10 10 10 10 10 11 11 11 11 11 11 11 11 11 11 11 11
7 7 8 8 8 7 7 7 8 8 8 8 8 9 9 9 9 9 8 8 9 9 9 8 8 9 8 8 8 9 9 9 9 9 10 10 10 11 11 10 10 10 10 10 11 11 11 11 11
7 7 7 8 8 8 7 7 8 8 8 9 9 9 9 9 9 9 9 9 9 9 9 9 9 9 8 8 8 8 9 9 9 10 10 10 10 10 10 9 10 10 11 11 11 10 11 11 10
9 9 8 8 9 9 9 9 9 9 9 9 9 9 9 10 9 9 8 9 9 9 9 9 9 9 8 8 9 9 9 9 9 9 9 9 9 9 9 9 9 10 10 10 10 10 10 10 10
9 9 9 9 10 10 10 10 10 9 9 9 10 10 10 10 10 10 9 10 9 9 9 9 9 9 10 10 10 10 10 9 9 9 9 9 10 9 9 9 9 10 10 10 9 9 9 9 9
11 11 11 11 11 11 11 11 11 11 10 10 10 10 11 11 11 11 10 10 11 11 10 10 10 10 11 11 11 11 11 11 10 10 10 10 10 9 9 9 10 10 10 10 9 9 9 9 9
12 12 12 12 13 13 13 12 11 12 11 11 11 11 11 11 12 12 11 11 11 11 12 11 11 11 11 11 12 11 11 11 11 10 10 10 10 10 10 10 10 10 9 10 9 8 8 8 9
12 12 12 13 13 13 13 13 11 12 12 12 12 12 12 12 12 12 12 11 11 11 11 11 12 12 13 12 12 12 12 11 11 10 10 10 10 10 10 10 10 10 9 9 9 8 9 9 9
13 13 14 14 14 14 13 13 11 12 12 12 12 12 13 13 12 13 12 12 12 11 12 12 12 12 13 13 13 12 12 12 12 11 11 11 11 10 10 11 10 10 10 10 9 9 9 10 10
13 13 14 14 14 14 13 13 12 12 13 13 13 13 13 13 13 13 13 13 12 12 13 13 13 13 13 13 13 13 13 13 12 12 12 12 11 11 11 11 10 10 10 10 10 10 10 10 10
13 14 14 14 14 13 13 13 13 13 13 13 13 13 14 14 13 14 14 14 13 13 14 14 13 13 13 13 13 13 14 14 13 13 13 13 13 12 12 11 11 11 10 10 10 10 11 10 10
14 14 14 15 14 14 13 13 13 13 13 13 14 14 14 14 14 14 14 14 15 14 14 14 14 14 14 13 13 13 14 14 14 14 14 14 13 13 13 12 12 12 11 11 10 10 10 9 9
15 14 14 15 15 14 14 13 13 13 13 13 14 14 15 15 15 15 15 15 15 15 15 15 15 15 15 15 14 14 14 15 15 15 15 14 13 13 13 13 13 12 12 11 10 10 10 10 10
15 15 16 16 16 16 15 15 15 14 14 14 14 15 15 16 16 16 16 16 16 16 16 16 16 16 16 15 15 15 15 16 16 16 15 14 14 14 14 14 14 14 13 12 11 11 11 11 11
17 17 17 18 18 18 17 16 16 16 16 16 15 15 15 16 16 16 16 17 17 17 17 17 17 17 17 16 16 15 16 16 16 16 15 15 15 15 14 14 14 14 14 14 13 13 13 13 13
Wind_Direction
148 170 208 217 218 208 172 153 149 151 157 161 159 160 158 168 173 169 152 19 347 325 315 331 351 5 24 36 37 23 30 31 33 37 38 27 14 7 4 357 350 346 341 338 336 336 331 335 333
179 177 213 220 209 203 167 167 170 162 164 163 158 171 179 191 188 206 238 306 311 306 299 299 324 327 355 4 358 353 358 10 10 11 11 1 351 346 345 342 340 335 335 333 329 326 323 324 325
234 227 245 246 215 204 187 194 190 177 178 180 174 182 198 220 242 274 293 301 297 292 293 286 278 270 299 324 327 340 335 340 345 343 343 340 339 340 338 328 329 324 324 325 323 322 319 322 326
248 248 254 259 244 212 189 193 199 195 198 204 217 223 228 229 249 274 298 303 296 284 281 269 254 252 272 288 286 297 299 308 319 322 322 324 326 326 324 325 326 323 319 319 322 320 319 319 322
257 252 252 262 259 224 213 214 216 218 229 234 241 249 258 263 261 267 280 288 285 281 268 253 252 260 269 272 273 277 285 291 303 307 313 315 315 316 316 314 319 317 314 314 315 316 311 311 314
265 260 256 253 256 241 228 234 228 226 243 249 254 253 256 268 273 274 284 287 285 274 257 254 259 267 272 277 277 274 286 292 298 303 305 306 309 311 311 307 309 309 306 307 308 311 311 309 310
282 270 256 258 257 245 242 248 239 238 251 259 260 263 267 267 268 272 279 279 277 273 266 264 266 267 273 280 283 279 285 291 294 296 297 298 299 303 304 304 303 302 301 302 302 302 303 306 308
279 277 262 256 254 246 244 241 242 245 251 252 254 261 267 268 269 268 270 276 275 276 271 267 265 263 265 271 278 279 279 282 287 290 292 293 296 299 298 299 301 300 299 299 296 293 292 296 300
272 272 267 260 253 251 246 244 248 252 252 251 258 263 267 267 267 267 267 272 274 274 270 269 265 262 264 269 272 274 276 279 284 287 289 290 292 293 294 295 297 299 299 296 292 292 292 294 295
268 266 266 266 257 249 249 250 252 258 264 264 264 267 269 265 266 269 268 269 271 274 274 272 269 267 266 266 269 271 274 278 280 283 283 282 284 286 290 293 293 294 296 293 292 291 290 293 295
268 267 266 263 257 252 252 254 256 263 262 266 266 266 266 264 264 265 267 269 273 275 278 277 271 269 270 270 271 273 274 276 278 280 279 280 282 282 286 289 288 288 289 288 289 287 287 290 294
265 264 262 260 258 255 256 255 255 256 257 260 260 262 264 269 273 275 276 278 279 281 281 278 277 275 276 275 275 277 276 277 278 280 279 279 282 283 284 285 283 284 285 282 282 282 285 288 290
261 258 261 262 261 258 258 258 259 260 261 263 260 260 263 268 275 282 284 283 282 283 281 282 284 282 283 281 281 281 280 280 280 281 281 283 285 283 284 286 285 285 283 279 277 278 281 284 287
258 257 260 261 261 260 261 263 264 264 265 263 261 261 265 269 275 281 283 283 283 285 284 282 285 285 286 285 282 285 285 284 284 283 283 285 286 287 286 285 286 285 284 281 277 277 278 281 284
260 257 257 260 261 261 263 265 264 266 264 261 259 262 267 271 274 277 280 282 284 286 288 289 288 287 285 284 283 285 283 282 285 285 285 288 287 286 289 287 285 283 283 281 278 279 278 278 279
262 259 261 264 265 264 265 267 265 264 262 261 261 261 265 271 275 278 280 282 282 283 286 289 291 289 286 284 283 283 284 285 286 286 287 290 290 286 286 286 284 284 284 284 281 280 278 277 276
261 262 261 262 264 267 267 270 270 265 263 263 263 264 266 271 277 280 283 282 282 281 281 286 290 291 290 290 288 285 285 286 285 286 286 290 293 294 290 288 286 287 288 286 283 280 278 278 276
259 262 264 265 267 268 269 270 273 267 266 266 268 270 269 271 277 281 280 280 279 279 280 282 285 290 290 293 295 296 293 288 285 289 291 292 294 297 295 294 295 295 291 286 284 281 276 276 277
259 260 262 262 266 270 273 272 272 272 269 269 270 269 268 268 275 278 279 279 278 277 279 281 281 286 290 292 294 296 296 296 293 290 295 297 299 302 301 301 299 298 295 289 285 280 274 274 276
263 262 262 264 268 270 272 271 269 270 271 272 273 274 272 271 276 278 277 278 279 277 277 281 282 285 287 289 292 293 292 292 294 294 294 297 299 300 298 301 303 301 299 293 287 281 276 276 276
267 265 263 265 267 268 268 268 269 271 272 274 276 278 279 278 277 277 278 278 278 277 277 279 282 282 283 286 289 289 287 286 287 291 293 293 294 293 295 298 299 297 297 296 291 282 279 276 274
268 266 265 265 266 266 267 267 269 271 272 273 276 276 276 275 276 276 276 277 277 277 277 277 281 281 281 284 287 287 286 285 287 289 288 287 289 293 292 296 296 294 294 294 291 284 282 280 280
266 265 266 266 267 268 269 269 270 272 271 271 272 272 272 272 270 270 272 275 279 279 278 277 280 282 283 283 284 284 284 283 285 288 286 286 289 291 292 294 293 291 293 293 291 283 281 280 281
267 266 265 267 269 271 272 271 271 272 272 272 271 270 272 271 270 271 273 276 280 281 279 279 282 283 284 284 282 283 282 281 283 283 284 284 285 288 290 291 291 290 288 288 289 284 282 281 281
266 269 270 270 271 273 273 273 274 273 272 272 271 271 272 272 272 272 274 277 279 279 277 277 279 283 283 281 279 281 282 283 284 283 284 282 283 285 286 288 289 290 290 288 286 284 285 283 281
268 271 272 275 276 274 275 276 277 276 275 274 273 273 275 274 273 273 275 276 277 278 277 277 279 279 281 281 278 277 279 281 281 282 283 280 280 282 281 281 283 285 287 287 285 284 281 283 282
269 270 274 275 277 277 277 277 278 278 278 276 275 274 274 275 274 274 276 277 276 276 276 277 277 277 279 282 278 277 277 278 278 279 280 279 279 279 277 277 279 279 281 283 283 282 281 281 282
268 270 272 275 278 279 279 278 280 278 278 277 274 273 273 274 275 275 276 276 277 276 276 275 276 278 280 282 282 279 278 277 278 279 280 278 276 275 273 274 277 277 277 277 278 279 280 279 280
267 269 271 274 276 280 281 281 279 278 278 277 273 273 274 274 276 277 277 277 276 275 274 275 276 277 280 279 281 284 280 279 278 277 276 277 276 275 273 273 275 273 271 272 273 275 278 278 278
267 269 271 273 277 279 281 282 282 281 279 277 275 273 274 274 274 274 275 277 275 273 272 273 275 278 279 278 279 282 283 281 278 275 275 276 277 275 273 273 272 272 273 272 271 272 274 276 277
Height
5876 5876 5877 5878 5879 5879 5879 5880 5880 5881 5882 5882 5882 5883 5883 5884 5885 5888 5886 5884 5885 5885 5884 5884 5884 5884 5883 5883 5883 5883 5883 5883 5883 5883 5883 5882 5882 5882 5882 5882 5881 5881 5881 5880 5879 5879 5879 5878 5878
5876 5877 5879 5879 5879 5879 5880 5880 5881 5882 5882 5882 5883 5883 5883 5883 5884 5885 5884 5884 5884 5884 5884 5884 5884 5884 5884 5883 5883 5883 5883 5883 5883 5883 5883 5882 5882 5882 5882 5881 5881 5881 5880 5880 5879 5878 5878 5878 5877
5876 5877 5879 5879 5878 5879 5880 5880 5881 5882 5882 5883 5883 5883 5884 5884 5884 5884 5884 5884 5884 5884 5884 5884 5884 5884 5883 5883 5883 5883 5883 5883 5883 5882 5882 5882 5882 5881 5881 5881 5881 5880 5880 5879 5878 5878 5877 5877 5876
5877 5878 5879 5879 5878 5879 5880 5880 5881 5882 5882 5883 5883 5883 5883 5884 5884 5884 5884 5884 5884 5884 5883 5883 5883 5883 5883 5883 5883 5883 5883 5882 5882 5882 5882 5882 5881 5881 5881 5880 5880 5880 5879 5879 5878 5877 5877 5876 5876
5877 5878 5878 5878 5879 5879 5880 5880 5881 5881 5882 5882 5883 5883 5883 5884 5883 5884 5883 5883 5883 5883 5883 5883 5883 5883 5882 5883 5882 5882 5882 5882 5882 5882 5881 5881 5881 5880 5880 5880 5879 5879 5878 5878 5877 5876 5876 5875 5875
5878 5878 5878 5878 5879 5879 5880 5880 5881 5881 5881 5882 5882 5882 5883 5883 5883 5883 5883 5883 5883 5883 5882 5882 5882 5882 5882 5882 5882 5882 5882 5881 5881 5881 5880 5880 5880 5879 5879 5878 5878 5878 5877 5877 5876 5875 5875 5874 5873
5878 5877 5877 5878 5878 5879 5880 5880 5881 5881 5881 5881 5882 5882 5882 5882 5882 5882 5882 5882 5882 5882 5881 5881 5881 5881 5881 5881 5881 5881 5881 5880 5880 5880 5879 5879 5879 5878 5878 5877 5877 5876 5876 5875 5874 5874 5873 5873 5872
5877 5878 5877 5878 5878 5879 5880 5880 5880 5880 5880 5881 5881 5881 5881 5882 5881 5881 5881 5881 5881 5880 5880 5880 5880 5880 5880 5880 5880 5880 5879 5879 5879 5878 5878 5877 5877 5877 5876 5876 5875 5875 5874 5873 5873 5872 5872 5871 5870
5876 5878 5877 5877 5878 5878 5879 5879 5880 5880 5880 5880 5880 5880 5881 5880 5880 5880 5880 5880 5880 5879 5879 5879 5878 5878 5878 5878 5878 5878 5878 5878 5877 5877 5876 5876 5876 5875 5874 5874 5873 5873 5872 5872 5871 5870 5870 5869 5869
5876 5876 5876 5877 5877 5877 5878 5878 5879 5879 5879 5879 5879 5879 5879 5879 5879 5879 5879 5879 5878 5878 5878 5877 5877 5877 5877 5877 5877 5876 5876 5876 5876 5875 5875 5874 5874 5873 5873 5872 5871 5871 5871 5870 5869 5869 5868 5868 5867
5874 5875 5875 5876 5876 5876 5877 5877 5877 5878 5878 5878 5878 5878 5878 5878 5878 5878 5877 5877 5877 5877 5876 5876 5876 5875 5875 5875 5875 5874 5874 5874 5873 5873 5873 5872 5872 5871 5870 5870 5869 5869 5868 5868 5867 5867 5866 5866 5865
5873 5874 5874 5875 5875 5875 5876 5876 5876 5876 5877 5877 5876 5876 5876 5877 5876 5876 5876 5876 5875 5875 5875 5875 5874 5874 5873 5873 5873 5872 5872 5872 5871 5871 5871 5870 5869 5869 5868 5867 5867 5867 5866 5866 5865 5865 5864 5864 5863
5872 5872 5873 5873 5874 5874 5875 5875 5875 5875 5875 5875 5875 5875 5875 5875 5875 5875 5875 5874 5874 5874 5873 5873 5873 5872 5872 5871 5871 5871 5870 5870 5869 5869 5868 5868 5867 5867 5866 5865 5865 5864 5864 5863 5863 5863 5862 5862 5861
5871 5871 5872 5872 5872 5873 5873 5873 5874 5874 5874 5874 5874 5874 5874 5874 5874 5874 5873 5873 5873 5872 5872 5871 5871 5870 5870 5870 5869 5869 5868 5868 5867 5867 5866 5866 5865 5864 5864 5863 5862 5862 5861 5861 5860 5860 5860 5859 5859
5870 5871 5871 5871 5871 5871 5872 5872 5872 5872 5872 5872 5873 5873 5872 5872 5872 5872 5872 5871 5871 5870 5870 5869 5869 5869 5868 5868 5867 5867 5866 5866 5865 5864 5864 5863 5863 5862 5861 5861 5860 5859 5859 5858 5858 5858 5857 5857 5856
5869 5870 5870 5870 5870 5870 5872 5871 5871 5871 5871 5871 5871 5871 5871 5870 5870 5870 5870 5870 5869 5868 5868 5868 5867 5867 5866 5866 5865 5865 5864 5864 5863 5862 5862 5861 5860 5859 5859 5858 5858 5857 5856 5856 5855 5855 5855 5854 5854
5867 5868 5868 5869 5869 5869 5870 5869 5869 5869 5869 5869 5869 5869 5869 5869 5869 5868 5868 5868 5867 5867 5866 5866 5865 5865 5864 5864 5863 5863 5862 5861 5861 5860 5860 5859 5858 5857 5856 5856 5855 5854 5854 5853 5853 5852 5852 5852 5852
5866 5867 5867 5867 5867 5867 5868 5868 5868 5867 5867 5867 5868 5867 5867 5867 5867 5866 5866 5866 5865 5865 5864 5864 5864 5863 5862 5862 5861 5860 5860 5859 5859 5858 5857 5857 5856 5855 5854 5853 5853 5852 5852 5851 5850 5850 5850 5849 5849
5865 5865 5865 5866 5866 5866 5866 5866 5866 5866 5866 5866 5866 5866 5865 5865 5865 5864 5864 5864 5863 5863 5862 5862 5861 5861 5860 5860 5859 5858 5858 5857 5857 5856 5855 5854 5854 5853 5852 5851 5851 5850 5849 5849 5848 5848 5847 5847 5847
5863 5864 5864 5864 5864 5864 5864 5864 5864 5864 5864 5864 5864 5864 5863 5863 5862 5862 5862 5861 5861 5860 5860 5859 5859 5859 5858 5858 5857 5856 5856 5855 5855 5854 5853 5852 5852 5851 5850 5849 5849 5848 5847 5847 5846 5845 5845 5845 5845
5861 5861 5862 5862 5862 5862 5862 5863 5862 5862 5862 5862 5862 5861 5861 5860 5860 5859 5859 5859 5858 5858 5857 5857 5856 5856 5856 5855 5855 5854 5853 5853 5852 5852 5851 5850 5850 5849 5848 5847 5847 5846 5845 5845 5844 5843 5843 5843 5843
5859 5859 5859 5859 5859 5859 5860 5860 5860 5860 5859 5859 5859 5858 5858 5857 5857 5856 5856 5856 5855 5855 5855 5854 5854 5854 5853 5853 5852 5851 5851 5850 5850 5849 5849 5848 5847 5847 5846 5845 5845 5844 5843 5842 5842 5841 5841 5841 5840
5856 5856 5856 5856 5856 5857 5857 5857 5858 5857 5857 5856 5856 5855 5855 5854 5854 5853 5853 5853 5853 5852 5852 5851 5851 5850 5850 5850 5849 5849 5848 5848 5847 5847 5846 5846 5845 5844 5844 5843 5842 5841 5841 5840 5840 5839 5839 5839 5838
5853 5853 5853 5853 5853 5854 5854 5854 5855 5854 5854 5853 5853 5852 5851 5851 5851 5850 5850 5850 5850 5849 5849 5848 5848 5847 5847 5846 5846 5846 5845 5845 5845 5844 5844 5843 5842 5842 5841 5841 5840 5839 5839 5838 5837 5837 5836 5836 5836
5851 5851 5851 5850 5850 5851 5851 5850 5852 5850 5850 5850 5849 5849 5848 5848 5847 5847 5847 5846 5846 5846 5845 5845 5844 5844 5844 5843 5843 5842 5842 5842 5841 5841 5841 5840 5840 5839 5839 5838 5837 5837 5836 5836 5835 5835 5834 5834 5833
5847 5848 5848 5848 5847 5847 5847 5847 5848 5847 5846 5846 5846 5845 5845 5844 5844 5843 5843 5843 5843 5842 5842 5842 5841 5841 5840 5840 5839 5839 5839 5839 5838 5838 5837 5837 5836 5836 5836 5835 5835 5834 5834 5833 5833 5832 5831 5831 5831
5844 5844 5844 5844 5844 5844 5843 5844 5844 5843 5843 5842 5842 5841 5841 5841 5840 5840 5840 5839 5839 5839 5838 5838 5838 5837 5837 5836 5836 5836 5835 5835 5835 5834 5834 5833 5833 5832 5832 5832 5832 5831 5831 5830 5830 5829 5829 5829 5828
5841 5841 5841 5840 5840 5840 5840 5840 5840 5839 5839 5839 5838 5837 5837 5837 5836 5836 5836 5835 5835 5835 5834 5834 5834 5834 5833 5833 5832 5832 5832 5831 5831 5831 5830 5830 5829 5829 5829 5828 5828 5828 5828 5827 5827 5827 5826 5826 5826
5837 5837 5837 5837 5836 5836 5836 5839 5836 5836 5835 5835 5834 5834 5833 5833 5832 5832 5832 5831 5831 5831 5830 5830 5830 5830 5829 5829 5829 5828 5828 5827 5827 5827 5826 5826 5825 5825 5825 5825 5824 5824 5824 5824 5824 5823 5823 5823 5823
5833 5833 5833 5833 5833 5832 5832 5836 5832 5831 5831 5830 5830 5829 5829 5828 5828 5828 5828 5827 5827 5826 5826 5826 5826 5826 5825 5825 5825 5824 5823 5823 5823 5822 5822 5822 5821 5821 5821 5821 5821 5820 5820 5820 5820 5820 5820 5819 5819